Location: Gro�bocka
(50.8204°N, 11.9702°E)
Time: 01:44:03
(UTC+00:00)

NOSS 3-3 (C) - Pass Details

Date: 29 October 2020
Orbit: 825 x 1387 km, 63.4° (Epoch: 22 November)

Event Time Altitude Azimuth Distance (km) Brightness Sun altitude
Rises 18:04:53 0° 216° (SW) 3,430 7.3 -21.5°
Reaches altitude 10° 18:07:14 10° 216° (SW) 2,541 6.6 -21.9°
Maximum altitude 18:13:07 79° 131° (SE) 980 3.8 -22.8°
Enters shadow 18:16:14 33° 49° (NE) 1,621 4.8 -23.3°
